This is the latest recevied weather packets stored in our database for station/object LRBS. If no packets are shown the sender has not sent any weather packets the latest 10 day(s).
| Time | Temp. | Humidity | Pressure | Rain* | Wind** | Luminosity | Snow |
|---|---|---|---|---|---|---|---|
| 1777361595 | 15° C | 51% | 1019 hPa | - | - | - | - |
| 1777360695 | 15° C | 51% | 1019 hPa | - | - | - | - |
| 1777359794 | 15° C | 51% | 1019 hPa | - | - | - | - |
| 1777358894 | 12.22° C | 63% | 1019 hPa | - | - | - | - |
| 1777358017 | 12.22° C | 63% | 1019 hPa | - | - | - | - |
| 1777357095 | 11.11° C | 67% | 1019 hPa | - | - | - | - |
| 1777356195 | 11.11° C | 67% | 1019 hPa | - | - | - | - |
| 1777355320 | 10° C | 67% | 1019 hPa | - | - | - | - |
| 1777354394 | 10° C | 67% | 1019 hPa | - | - | - | - |
| 1777353514 | 7.78° C | 71% | 1019 hPa | - | - | - | - |
| 1777352604 | 7.78° C | 71% | 1019 hPa | - | - | - | - |
| 1777351694 | 7.22° C | 76% | 1019 hPa | - | - | - | - |
| 1777350870 | 7.22° C | 76% | 1019 hPa | - | - | - | - |
| 1777349894 | 5° C | 81% | 1019 hPa | - | - | - | - |
| 1777348994 | 5° C | 81% | 1019 hPa | - | - | - | - |
| 1777348094 | 5° C | 81% | 1019 hPa | - | - | - | - |
| 1777347194 | 5° C | 81% | 1019 hPa | - | - | - | - |
| 1777346294 | 5° C | 81% | 1019 hPa | - | - | - | - |
| 1777345398 | 5° C | 81% | 1019 hPa | - | - | - | - |
| 1777344494 | 5° C | 87% | 1019 hPa | - | - | - | - |
| 1777343594 | 5° C | 87% | 1019 hPa | - | - | - | - |
| 1777342691 | 3.89° C | 81% | 1019 hPa | - | - | - | - |
| 1777341794 | 3.89° C | 81% | 1019 hPa | - | - | - | - |
| 1777340894 | 5° C | 87% | 1019 hPa | - | - | - | - |
| 1777340001 | 5° C | 87% | 1019 hPa | - | - | - | - |
* Rain since midnight (hover to see other rain measurements)
** Current wind speed in m/s (hover to see current wind gust speed)